Challenge des Corridas Hivernales

La Corrida De Neufchateau (5.00 km)

vendredi 18 octobre 2019

Le classement original se trouve sur : http://ultratiming.be/
CHALLENGE DES CORRIDAS HIVERNALES
LA CORRIDA DE NEUFCHATEAU
DISTANCE : 5.00 km
vendredi 18 octobre 2019
 
Place dos NOM Catégorie Pl/cat temps temps/km Vitesse
1 338 COLLIN THOMAS SEH 1 00:16:40 03:20 18.00
2 90 CARA RÉMI SEH 2 00:17:11 03:26 17.46
3 48 LÉONARD CÉDRIC SEH 3 00:18:07 03:37 16.56
4 311 EVRARD DAMIEN SEH 4 00:18:26 03:41 16.27
5 3 LEJEUNE DAMIEN SEH 5 00:18:30 03:42 16.22
6 577 DOUCET LUCAS SEH 6 00:18:30 03:42 16.22
7 519 LEMAIRE CONSTANT SEH 7 00:18:33 03:43 16.17
8 81 JOIRIS SULLIVAN V1H 1 00:18:48 03:46 15.96
9 116 STEFFEN JOHN SEH 8 00:18:49 03:46 15.94
10 567 DE LIE AXEL SEH 9 00:19:12 03:50 15.63
11 20 RAMSPACHER JULUEN V1H 2 00:19:13 03:51 15.61
12 1 MATHIEU SIMON SEH 10 00:19:24 03:53 15.46
13 565 NOPPE GUSTIN JEUH 1 00:19:26 03:53 15.44
14 50 PERRAD CHRISTOPHE SEH 11 00:19:27 03:53 15.42
15 47 DECHAMBRE RÉMY SEH 12 00:19:28 03:54 15.41
16 28 PINSON CHRISTOPHE SEH 13 00:19:45 03:57 15.19
17 310 LEGRAND JOACKIM SEH 14 00:19:51 03:58 15.11
18 89 CARA BORIS SEH 15 00:19:52 03:58 15.10
19 24 GILLET DAVID V2H 1 00:19:56 03:59 15.05
20 76 ANNET FABRICE V2H 2 00:20:00 04:00 15.00
21 115 PAQUET RAPHAEL V1H 3 00:20:05 04:01 14.94
22 33 CARVELA MARCIO V1H 4 00:20:17 04:03 14.79
23 521 LOPES. DIAS QUENTIN SEH 16 00:20:17 04:03 14.79
24 480 CONNIASSELLE FRANCOIS V1H 5 00:20:19 04:04 14.77
25 566 DE LIE ARNAUD SEH 17 00:20:34 04:07 14.59
26 532 COLLET AMAURY SEH 18 00:20:45 04:09 14.46
27 528 DELAISSE ROMAIN SEH 19 00:20:51 04:10 14.39
28 363 BRAUX MATHIEU SEH 20 00:20:57 04:11 14.32
29 49 GOOSSE MICHAEL SEH 21 00:21:00 04:12 14.29
30 592 VAN HOLM LOUIS JEUH 2 00:21:06 04:13 14.22
31 335 QUIBUS JEAN-LUC SEH 22 00:21:10 04:14 14.17
32 57 LEMAIRE NANCY V1F 1 00:21:13 04:15 14.14
33 121 PICARD AMAEL SEH 23 00:21:13 04:15 14.14
34 529 ADAM MARCO SEH 24 00:21:25 04:17 14.01
35 93 LAVAL SALINAS ESTEBAN JEUH 3 00:21:27 04:17 13.99
36 344 GARCIA JONATHAN SEH 25 00:21:28 04:18 13.98
37 46 ROLLES KEVIN SEH 26 00:21:30 04:18 13.95
38 304 DEBUE DIEGP JEUH 4 00:21:32 04:18 13.93
39 513 OUTMANNS MARTIN V1H 6 00:21:35 04:19 13.90
40 514 OUTMANNS COLIN JEUH 5 00:21:35 04:19 13.90
41 515 LOMMEL THOMAS SEH 27 00:21:38 04:20 13.87
42 70 KERGER SÉBASTIEN V1H 7 00:21:40 04:20 13.85
43 486 SOENEN JEAN-SEBASTIEN SEH 28 00:21:43 04:21 13.81
44 593 MIGNON JULIEN SEH 29 00:21:50 04:22 13.74
45 600 GERARD ROBIN JEUH 6 00:21:50 04:22 13.74
46 16 AUBRY GILLES SEH 30 00:21:53 04:23 13.71
47 26 SENSIQUE NOLAN JEUH 7 00:21:53 04:23 13.71
48 131 GUEBELS COLIN SEH 31 00:21:54 04:23 13.70
49 102 DEVILLE DORIAN SEH 32 00:21:56 04:23 13.68
50 537 GANGLER JONATHAN SEH 33 00:21:56 04:23 13.68
51 78 BRION SÉBASTIEN SEH 34 00:21:57 04:23 13.67
52 334 NEMERY FLORIAN SEH 35 00:21:58 04:24 13.66
53 316 SPIES FLORENT SEH 36 00:22:00 04:24 13.64
54 65 MANGEL ALEXANDRE V1H 8 00:22:04 04:25 13.60
55 336 THILTGEN JEAN-FRANÇOIS V1H 9 00:22:04 04:25 13.60
56 63 PARIZEL LOAN JEUH 8 00:22:07 04:25 13.56
57 488 COLLET SÉBASTIEN SEH 37 00:22:12 04:26 13.51
58 85 PIROT ANAÏS SEF 1 00:22:22 04:28 13.41
59 309 SON KATHLEEN SEF 2 00:22:22 04:28 13.41
60 9 TUAUX MATHIAS SEH 38 00:22:26 04:29 13.37
61 145 FENA AUGUSTIN SEH 39 00:22:35 04:31 13.28
62 133 VIEUXTEMPS MAXIME SEH 40 00:22:37 04:31 13.26
63 351 BURNET AXEL JEUH 9 00:22:44 04:33 13.20
64 86 HUBERT GUILLAUME SEH 41 00:22:44 04:33 13.20
65 109 ROBIN MICHAEL V1H 10 00:22:48 04:34 13.16
66 581 LUFFIN DIDIER V2H 3 00:22:53 04:35 13.11
67 67 BOURGUIGNON ARNAUD V1H 11 00:22:56 04:35 13.08
68 516 BASTIN PHILIPPE SEH 42 00:22:58 04:36 13.06
69 110 ROBIN NOAM JEUH 10 00:23:05 04:37 13.00
70 493 FENA ANTOINE SEH 43 00:23:12 04:38 12.93
71 498 COLLARD CYPRIENNE SEH 44 00:23:13 04:39 12.92
72 501 CLAUDE PAULINE SEF 3 00:23:14 04:39 12.91
73 104 ROISEUX KAREN SEF 4 00:23:14 04:39 12.91
74 59 RICHARD TRISTAN SEH 45 00:23:15 04:39 12.90
75 538 PONCELET ANTHONY V2H 4 00:23:16 04:39 12.89
76 584 ALLARD BASTIEN SEH 46 00:23:17 04:39 12.88
77 68 WELVAERT JULES V3H 1 00:23:18 04:40 12.88
78 366 FINET HUGO JEUH 11 00:23:20 04:40 12.86
79 14 FAUTRÉ JULIE SEF 5 00:23:24 04:41 12.82
80 99 LHERMITTE THOMAS SEH 47 00:23:28 04:42 12.78
81 82 DELAIT OLIVIER V2H 5 00:23:29 04:42 12.78
82 573 MEINGUET STEPHANE V2H 6 00:23:31 04:42 12.76
83 88 GODENIR NOLAN JEUH 12 00:23:33 04:43 12.74
84 87 DEVOLF THÉODORE JEUH 13 00:23:34 04:43 12.73
85 497 MORIS KEVIN SEH 48 00:23:39 04:44 12.68
86 62 PARIZEL STÉPHANE V3H 2 00:23:40 04:44 12.68
87 77 ANNET MATHEO JEUH 14 00:23:42 04:44 12.66
88 590 FRANÇOIS LESLIE SEH 49 00:23:48 04:46 12.61
89 353 MINSIER CELIEN JEUH 15 00:23:50 04:46 12.59
90 352 MINSIER YVES V2H 7 00:23:50 04:46 12.59
91 105 PLIER CHRISTOPHE V2H 8 00:23:51 04:46 12.58
92 339 PIERRARD GEOFFREY SEH 50 00:23:52 04:46 12.57
93 597 LIEGEOIS CLARA JEUF 1 00:23:54 04:47 12.55
94 572 CARTRY MAUD SEF 6 00:23:56 04:47 12.53
95 94 LAVAL SALINAS ANDREA JEUF 2 00:24:02 04:48 12.48
96 40 STEIOFF STÉPHANE SEH 51 00:24:06 04:49 12.45
97 580 PONSARD CRISTELLE V1F 2 00:24:10 04:50 12.41
98 146 BELCHE JÉRÉMY SEH 52 00:24:11 04:50 12.41
99 107 BORCEUX PAULINE SEF 7 00:24:15 04:51 12.37
100 8 COPPIN CLEMENT SEH 53 00:24:15 04:51 12.37
101 128 THIRY ELIAN JEUH 16 00:24:17 04:51 12.35
102 518 DIEZ JEANLOUIS V2H 9 00:24:20 04:52 12.33
103 530 BIGONVILLE THIERRY V3H 3 00:24:20 04:52 12.33
104 83 BOURGUIGNON LAURENT V2H 10 00:24:22 04:52 12.31
105 64 FIRRE FLORENT SEH 54 00:24:27 04:53 12.27
106 96 LAVAL FREDERIC V1H 12 00:24:27 04:53 12.27
107 18 GIGOT LISE JEUF 3 00:24:29 04:54 12.25
108 17 TOULEMONDE EMELINE JEUF 4 00:24:31 04:54 12.24
109 132 BEAUGEON LOIC SEH 55 00:24:31 04:54 12.24
110 124 LOBET DENIS SEH 56 00:24:39 04:56 12.17
111 79 MARON JADE JEUF 5 00:24:48 04:58 12.10
112 12 GODENIR CHRISTIAN V2H 11 00:24:50 04:58 12.08
113 118 HESSE SACHA JEUH 17 00:24:52 04:58 12.06
114 75 DONNAY AUDRIC JEUH 18 00:24:53 04:59 12.06
115 113 LIBERT EMILIE SEF 8 00:24:55 04:59 12.04
116 114 KIRSCH BENJAMIN SEH 57 00:24:56 04:59 12.03
117 61 COURTOIS VALERIE V2F 1 00:24:58 05:00 12.02
118 346 LECLER FLORENT V1H 13 00:25:02 05:00 11.98
119 123 NEMERY CLÉMENT SEH 58 00:25:03 05:01 11.98
120 27 SENSIQUE NICOLAS V1H 14 00:25:12 05:02 11.90
121 25 FRANÇOIS MARILYN V1F 3 00:25:14 05:03 11.89
122 359 THIRY VIVIEN V1H 15 00:25:18 05:04 11.86
123 588 VAN ERP XAVIER SEH 59 00:25:31 05:06 11.76
124 2 HALIN LORIC JEUH 19 00:25:39 05:08 11.70
125 119 MOHNEN CELINE V2F 2 00:25:42 05:08 11.67
126 7 SIMON AUGUSTIN JEUH 20 00:25:43 05:09 11.67
127 5 BALZA DOMINIQUE V3H 4 00:25:43 05:09 11.67
128 60 BORBOUSE REMY SEH 60 00:25:45 05:09 11.65
129 80 GERARD DELPHINE V1F 4 00:25:53 05:11 11.59
130 494 BRAHAM MEHDI V1H 16 00:25:55 05:11 11.58
131 39 TOUILLAUX DOMINIQUE V2H 12 00:25:57 05:11 11.56
132 15 DALIER ROMANE SEF 9 00:26:00 05:12 11.54
133 587 NOEL TANGUY V1H 17 00:26:11 05:14 11.46
134 301 TRAN XUAN-MAI V1F 5 00:26:18 05:16 11.41
135 313 LOUPPE ARNAUD SEH 61 00:26:22 05:16 11.38
136 583 FAGNERAY LAURIE SEF 10 00:26:23 05:17 11.37
137 582 CONROTTE MATHILDE SEF 11 00:26:23 05:17 11.37
138 125 THIRY DANIEL V2H 13 00:26:30 05:18 11.32
139 143 ROBINET JEAN-FRANÇOIS V1H 18 00:26:36 05:19 11.28
140 512 DASNOY FREDDY V3H 5 00:26:39 05:20 11.26
141 72 DIEZ JULES JEUH 21 00:26:44 05:21 11.22
142 596 LIÉGEOIS THIBAULT JEUH 22 00:26:45 05:21 11.21
143 122 NEMERY CORENTIN SEH 62 00:26:54 05:23 11.15
144 341 DOBBELAERE ROMAN SEH 63 00:26:57 05:23 11.13
145 563 BARTHÉLEMY FAUSTINE JEUF 6 00:26:57 05:23 11.13
146 570 LAGNEAU TOM JEUH 23 00:26:59 05:24 11.12
147 568 LAGNEAU MAËLLE JEUF 7 00:26:59 05:24 11.12
148 43 FALZONE CLAUDIA V1F 6 00:27:00 05:24 11.11
149 524 BODSON JONATHAN SEH 64 00:27:07 05:25 11.06
150 34 ADAM EVAN JEUH 24 00:27:10 05:26 11.04
151 51 GIUNTA FRANK SEH 65 00:27:10 05:26 11.04
152 35 LATRAN QUINTIA V1F 7 00:27:11 05:26 11.04
153 106 BORCEUX FLORENT SEH 66 00:27:12 05:26 11.03
154 345 ROTA SYLVAIN V1H 19 00:27:12 05:26 11.03
155 36 ADAM SÉBASTIEN V1H 20 00:27:13 05:27 11.02
156 517 RANSON PAULINE SEF 12 00:27:14 05:27 11.02
157 19 RAULET LAURIANNE SEF 13 00:27:25 05:29 10.94
158 509 DASNOY PRISCILLIA SEF 14 00:27:31 05:30 10.90
159 500 COPPIN NICOLAS SEH 67 00:27:35 05:31 10.88
160 97 DAUTUN LOU-ANNE JEUF 8 00:27:38 05:32 10.86
161 134 JEAN AGLAË SEF 15 00:27:41 05:32 10.84
162 112 LESSIRE CÉCILE V1F 8 00:27:41 05:32 10.84
163 499 BIGONVILLE GERALDINE SEF 16 00:27:42 05:32 10.83
164 595 PIERRARD MATHIEU SEH 68 00:28:01 05:36 10.71
165 308 HOLLAY CÉLESTIN JEUH 25 00:28:07 05:37 10.67
166 305 HOLLAY DIDIER V2H 14 00:28:08 05:38 10.66
167 127 HABAY CAROLINE SEF 17 00:28:10 05:38 10.65
168 482 LEBOUT LUCIE SEF 18 00:28:12 05:38 10.64
169 364 LEONARD ARNAUD SEH 69 00:28:12 05:38 10.64
170 476 MANIL PASCAL V1H 21 00:28:14 05:39 10.63
171 526 JACOB JEAN-JULIEN SEH 70 00:28:20 05:40 10.59
172 38 HALLET NADINE V2F 3 00:28:23 05:41 10.57
173 342 DUBOIS FLORETTE SEF 19 00:28:30 05:42 10.53
174 108 MARGAUX SOBLET SEF 20 00:28:32 05:42 10.51
175 340 MESQUIN SULIVAN SEH 71 00:28:42 05:44 10.45
176 599 GASPARD LAURENCE V1F 9 00:28:45 05:45 10.43
177 52 DELCOUR JEAN FRANCOIS V1H 22 00:28:46 05:45 10.43
178 314 CLAUDY FLORENT SEH 72 00:28:50 05:46 10.40
179 23 PAQUOT SANDRINE V1F 10 00:28:54 05:47 10.38
180 303 DEBUE NOAH SEH 73 00:28:56 05:47 10.37
181 576 MEINGUET MANON JEUF 9 00:28:57 05:47 10.36
182 360 BRIEL VIOLETTE JEUF 10 00:28:58 05:48 10.36
183 302 VAN GOIDSENHOVEN CAITLIN JEUF 11 00:28:58 05:48 10.36
184 361 LEDUR GABRIEL JEUH 26 00:28:59 05:48 10.35
185 506 LEGRAND SÉBASTIEN V1H 23 00:29:14 05:51 10.26
186 589 ROBERTY AURELIE SEF 21 00:29:23 05:53 10.21
187 585 WILLEMET CHLOE SEF 22 00:29:26 05:53 10.19
188 11 DEVILLET SERGE V3H 6 00:29:30 05:54 10.17
189 111 ROUSSEAU STEPHANIE V1F 11 00:29:31 05:54 10.16
190 483 HENRIQUET THOMAS SEH 74 00:29:35 05:55 10.14
191 522 DUMONT JULIE V1F 12 00:29:40 05:56 10.11
192 523 THIRION CHARLES EMMANUEL SEH 75 00:29:40 05:56 10.11
193 540 MERCKX LAURENT SEH 76 00:29:43 05:57 10.10
194 539 PIRCAR QUENTIN SEH 77 00:29:45 05:57 10.08
195 591 GODIN CHRISTELLE V1F 13 00:29:47 05:57 10.07
196 69 FINEUSE EMILE V3H 7 00:29:49 05:58 10.06
197 492 BOEUR MÉLANIE SEF 23 00:29:50 05:58 10.06
198 37 TOUILLAUX SASHA JEUF 12 00:29:58 06:00 10.01
199 120 BACLIN NATHALIE SEF 24 00:30:00 06:00 10.00
200 543 PETITJEAN VANILLE SEF 25 00:30:11 06:02 9.94
201 32 GILLOT LAURA SEF 26 00:30:15 06:03 9.92
202 21 DEFOIN FLORIE SEF 27 00:30:21 06:04 9.88
203 520 ARNOULD AURELIE V1F 14 00:30:30 06:06 9.84
204 343 AUTHELET MARIE SEF 28 00:30:30 06:06 9.84
205 569 LAGNEAU GAËTANE JEUF 13 00:30:34 06:07 9.81
206 58 BOUCHARD CAROLINE V2F 4 00:30:35 06:07 9.81
207 571 LAGNEAU MICHAEL V1H 24 00:30:36 06:07 9.80
208 485 MOTQUIN XAVIER SEH 78 00:30:39 06:08 9.79
209 101 CORNET SIMON SEH 79 00:30:44 06:09 9.76
210 73 ADNET RAPHAËL JEUH 27 00:30:57 06:11 9.69
211 487 GERARD LIONEL SEH 80 00:30:57 06:11 9.69
212 4 MOREAU MARIE V1F 15 00:31:00 06:12 9.68
213 100 DUBOIS THIERRY SEH 81 00:31:06 06:13 9.65
214 66 HAUTECOEUR MATHILDE SEF 29 00:31:07 06:13 9.64
215 490 GOFFLOT KEVIN SEH 82 00:31:10 06:14 9.63
216 306 FROIDCOURT DAVID SEH 83 00:31:12 06:14 9.62
217 91 LUGEN NOËLLA V3F 1 00:31:16 06:15 9.59
218 142 MANAND EEIC V2H 15 00:31:17 06:15 9.59
219 578 FONTAINE MICHEL V3H 8 00:31:19 06:16 9.58
220 29 GOFFIN JULIEN V1H 25 00:31:26 06:17 9.54
221 84 ROLET JACQUES V3H 9 00:31:26 06:17 9.54
222 30 HERMANN CHRISTELLE SEF 30 00:31:30 06:18 9.52
223 312 ALLARD KIMBERLEY SEF 31 00:31:35 06:19 9.50
224 536 DUBUISSON MARIE-FLORE SEF 32 00:31:40 06:20 9.47
225 510 DASNOY VANESSA SEF 33 00:31:43 06:21 9.46
226 315 LOUPPE PHILIPPE V3H 10 00:31:45 06:21 9.45
227 564 BAAR PIERRE V3H 11 00:31:51 06:22 9.42
228 53 LA DELFA VANESSA SEF 34 00:31:59 06:24 9.38
229 44 VAN ALSENOY ALINE SEF 35 00:32:02 06:24 9.37
230 586 ROCHET JOHANNIE SEF 36 00:32:03 06:25 9.36
231 541 BOURLARD EMILIE SEF 37 00:32:03 06:25 9.36
232 10 GODENIR EVA SEF 38 00:32:05 06:25 9.35
233 103 LOUIS GAELLE SEF 39 00:32:08 06:26 9.34
234 511 GARDIEN MARTINE V2F 5 00:32:09 06:26 9.33
235 45 VAN ALSENOY MARGOT SEF 40 00:32:09 06:26 9.33
236 98 SIMON PASCALE V3F 2 00:32:12 06:26 9.32
237 594 HUBERT ANGÉLIQUE SEF 41 00:32:13 06:27 9.31
238 6 LOSCHETTER GUY V3H 12 00:32:16 06:27 9.30
239 507 GRIFA FLORIAN SEH 84 00:32:30 06:30 9.23
240 354 MONSEUR CAROLINE SEF 42 00:32:31 06:30 9.23
241 508 MOINET CELINE SEF 43 00:32:32 06:30 9.22
242 525 QUARTICELLI ILARIA V1F 16 00:32:35 06:31 9.21
243 527 MANERA MARINE SEF 44 00:33:03 06:37 9.08
244 502 WILKOWSKI LAURA SEF 45 00:33:05 06:37 9.07
245 92 GODART CONSTANCE SEF 46 00:33:08 06:38 9.05
246 598 LAHIER CLAUDINE V3F 3 00:33:09 06:38 9.05
247 126 THOLL MAITHE V1F 17 00:33:12 06:38 9.04
248 147 GALLAND CAROLINE V1F 18 00:33:21 06:40 9.00
249 22 BINAMUNGU MARTINE V1F 19 00:33:23 06:41 8.99
250 13 CHARNEUX YSALINE JEUF 14 00:33:28 06:42 8.96
251 55 COLLIN MANUEL V1H 26 00:33:35 06:43 8.93
252 54 DENIS ROXANE V1H 27 00:33:36 06:43 8.93
253 347 LEYDER CLOTILDE SEF 47 00:33:40 06:44 8.91
254 117 SIMON ANNE V1F 20 00:33:49 06:46 8.87
255 95 SALINAS FLOR V1F 21 00:33:54 06:47 8.85
256 484 PETITJEAN MARGAUX SEF 48 00:33:55 06:47 8.85
257 477 CHARO PATRICIA V2F 6 00:34:14 06:51 8.76
258 144 LOBET SANDRA V3F 4 00:34:38 06:56 8.66
259 356 HOURAND SEVERINE V1F 22 00:34:39 06:56 8.66
260 41 FRANTZEN AURELIE SEF 49 00:34:46 06:57 8.63
261 141 LECLEF THIMÉA JEUF 15 00:34:55 06:59 8.59
262 139 DAHIN MAELE V1F 23 00:34:58 07:00 8.58
263 140 LECLEF LAUENT V1H 28 00:34:58 07:00 8.58
264 355 GABRIEL JEAN SEH 85 00:35:01 07:00 8.57
265 505 GEOGNUZ VALERIE V1F 24 00:35:05 07:01 8.55
266 362 BOULANGER ÉLODIE SEF 50 00:35:07 07:01 8.54
267 349 DAWAGNE PIERRE V2H 16 00:35:09 07:02 8.53
268 504 DIEZ ANNE SOPHIE V1F 25 00:35:11 07:02 8.53
269 503 MERNIER LAURENCE V1F 26 00:35:12 07:02 8.52
270 56 SAKKIS BASIL V1H 29 00:35:17 07:03 8.50
271 496 LEYDER STÉPHANIE SEF 51 00:35:28 07:06 8.46
272 479 COYETTE LAURA SEF 52 00:35:34 07:07 8.43
273 546 COLLARD JUSTINE SEF 53 00:35:36 07:07 8.43
274 533 COLLET LOLA SEF 54 00:35:38 07:08 8.42
275 534 THIELENS LOUISE SEF 55 00:35:39 07:08 8.42
276 365 FINET ADAN JEUH 28 00:35:54 07:11 8.36
277 337 LOUIS SABRINA SEF 56 00:35:58 07:12 8.34
278 129 STASSER FLORENCE SEF 57 00:36:04 07:13 8.32
279 478 RUELLE KATTY V2F 7 00:36:17 07:15 8.27
280 348 BODART MARIE HÉLÈNE V3F 5 00:36:25 07:17 8.24
281 535 BODET CHRISTOPHE V1H 30 00:36:25 07:17 8.24
282 491 SIMONIS ANNE LISE SEF 58 00:36:40 07:20 8.18
283 31 MARQUIS STÉPHANIE SEF 59 00:37:00 07:24 8.11
284 130 CLERMONT AURÉLIE SEF 60 00:37:33 07:31 7.99
285 481 DEHEZ CATHY V2F 8 00:37:45 07:33 7.95
286 542 HAVELANGE CELINE SEF 61 00:37:57 07:35 7.91
287 579 DE DECKER ARLETTE V3F 6 00:38:07 07:37 7.87
288 71 GASNIER NICOLAS V1H 31 00:39:00 07:48 7.69
289 545 ROTH AURELIE SEF 62 00:39:32 07:54 7.59
290 307 PARACHE NATHALIE V2F 9 00:40:02 08:00 7.49
291 489 CHEA SOKHOEURN SEF 63 00:40:22 08:04 7.43
292 137 DOURTHE LESLY SEF 64 00:40:33 08:07 7.40
293 136 FINEUSE SÉBASTIEN V1H 32 00:40:46 08:09 7.36
294 575 GOFFETTE HÉLOÏSE SEF 65 00:40:48 08:10 7.35
295 574 MORISOD ROMANE SEF 66 00:40:48 08:10 7.35
296 544 XXX XXX   00:42:17 08:27 7.09
297 135 DAUTUN NATASHA SEF 67 00:43:18 08:40 6.93
298 138 PIRSON AMANDINE SEF 68 00:43:18 08:40 6.93
299 495 SACRÉ LUANA SEF 69 00:44:47 08:57 6.70
               
Nos dernières videos